Stations météo

réclame
Mon MeteoGroup
Helsingborg, Suède (2611): Température de l'air & dewpoint: 28.07.2020 14:00:00 - 03.08.2020 14:00:00 (CEST)Helsingborg, Suède (2611): Vitesse du vent & gusts: 28.07.2020 14:00:00 - 03.08.2020 14:00:00 (CEST)Helsingborg, Suède (2611): Direction du vent: 28.07.2020 14:00:00 - 03.08.2020 14:00:00 (CEST)Helsingborg, Suède (2611): reduced air pressure: 28.07.2020 14:00:00 - 03.08.2020 14:00:00 (CEST)Helsingborg, Suède (2611): visibility: 28.07.2020 14:00:00 - 03.08.2020 14:00:00 (CEST)Helsingborg, Suède (2611): Quantités de précipitations: 28.07.2020 14:00:00 - 03.08.2020 14:00:00 (CEST)
Date & Time tt [°C] td [°C] ff [km/h] ff [knt] fx [km/h] fx [knt] dd ppp [hPa] vv [km] rr [mm]
03.08.2020 14:00:00 20,1 10,0 16 9 31 17 WNW 1011,5 40 0,0
03.08.2020 13:00:00 19,6 9,8 16 8 25 14 WNW 1011,6 33 0,0
03.08.2020 12:00:00 17,0 10,6 13 7 31 17 WNW 1011,8 46 0,0
03.08.2020 11:00:00 19,1 11,2 11 6 30 16 NW 1011,6 38 0,0
03.08.2020 10:00:00 18,5 11,1 17 9 30 16 NW 1011,4 37 0,0
03.08.2020 09:00:00 17,3 11,1 14 8 27 15 WNW 1011,1 32 0,0
03.08.2020 08:00:00 15,9 11,7 11 6 19 11 W 1011,3 27 0,0
03.08.2020 07:00:00 15,0 11,6 9 5 20 11 WNW 1011,4 30 0,0
03.08.2020 06:00:00 14,1 10,7 10 5 20 11 WNW 1011,1 31 0,0
03.08.2020 05:00:00 14,1 11,4 6 4 23 13 NW 1011,1 30 0,0
03.08.2020 04:00:00 15,5 12,6 8 4 21 11 NW 1010,9 44 0,0
03.08.2020 03:00:00 16,0 13,7 11 6 21 11 NW 1010,8 37 0,0
03.08.2020 02:00:00 16,9 14,2 10 5 20 11 WNW 1010,8 45 0,0
03.08.2020 01:00:00 17,1 14,0 6 3 11 6 WSW 1010,5 50 0,0
03.08.2020 00:00:00 16,0 13,7 4 2 7 4 SSE 1010,6 49 0,0
02.08.2020 23:00:00 15,7 12,7 4 2 9 5 SSW 1010,5 48 0,0
02.08.2020 22:00:00 15,6 12,4 0 0 3 2 N 1010,6 50 0,0
02.08.2020 21:00:00 18,0 12,2 2 1 8 4 WSW 1010,6 50 0,0
02.08.2020 20:00:00 19,0 12,3 4 2 13 7 SW 1010,5 50 0,0
02.08.2020 19:00:00 20,0 12,5 8 4 16 9 WSW 1010,6 43 0,0
02.08.2020 18:00:00 20,7 13,6 9 5 16 9 W 1010,6 37 0,0
02.08.2020 17:00:00 19,3 13,5 8 4 16 8 WNW 1011,0 45 0,0
02.08.2020 16:00:00 19,7 14,1 7 4 19 11 WNW 1011,1 48 0,0
02.08.2020 15:00:00 19,6 13,8 10 5 22 12 W 1011,5 43 0,0
02.08.2020 14:00:00 19,1 13,1 10 5 21 11 W 1011,4 50 0,0
02.08.2020 13:00:00 19,1 13,5 13 7 25 13 W 1011,3 39 0,0
02.08.2020 12:00:00 19,9 14,0 12 6 22 12 W 1011,1 39 0,0
02.08.2020 11:00:00 19,9 13,5 12 7 22 12 W 1010,8 32 0,0
02.08.2020 10:00:00 19,7 13,9 13 7 24 13 W 1010,6 46 0,0
02.08.2020 09:00:00 18,2 15,5 11 6 18 10 SW 1010,6 26 0,0
02.08.2020 08:00:00 17,5 15,5 13 7 20 11 WSW 1010,9 18 0,0
02.08.2020 07:00:00 17,5 15,8 11 6 25 13 SSW 1010,8 21 0,0
02.08.2020 06:00:00 17,3 15,3 13 7 25 14 S 1010,9 38 0,0
02.08.2020 05:00:00 16,1 13,9 6 4 19 11 SSE 1011,0 50 0,0
02.08.2020 04:00:00 16,4 12,9 9 5 22 12 SE 1011,6 50 0,0
02.08.2020 03:00:00 17,2 11,9 9 5 20 11 SE 1011,9 50 0,0
02.08.2020 02:00:00 16,8 11,5 9 5 22 12 SE 1012,5 50 0,0
02.08.2020 01:00:00 17,2 11,5 9 5 21 12 SE 1013,2 50 0,0
02.08.2020 00:00:00 17,4 11,7 9 5 21 11 SE 1013,6 50 0,0
01.08.2020 23:00:00 17,5 11,6 10 5 19 10 SE 1013,9 50 0,0
01.08.2020 22:00:00 18,1 11,6 8 5 16 9 ESE 1014,4 50 0,0
01.08.2020 21:00:00 18,9 11,2 7 4 19 10 ESE 1014,5 50 0,0
01.08.2020 20:00:00 20,8 10,6 9 5 30 16 SE 1015,3 50 0,0
01.08.2020 19:00:00 22,3 12,3 16 9 30 16 S 1015,6 50 0,0
01.08.2020 18:00:00 22,5 12,2 18 10 32 18 S 1015,8 42 0,0
01.08.2020 17:00:00 21,5 11,7 22 12 35 19 S 1016,4 49 0,0
01.08.2020 16:00:00 22,8 12,1 21 12 35 19 S 1016,6 44 0,0
01.08.2020 15:00:00 23,1 11,8 18 10 31 17 SSW 1016,9 40 0,0
01.08.2020 14:00:00 22,8 13,0 14 8 28 15 S 1017,1 35 0,0
01.08.2020 13:00:00 23,7 12,4 17 9 29 16 SSW 1017,5 29 0,0
01.08.2020 12:00:00 22,9 11,6 16 9 26 14 SSW 1017,9 27 0,0
01.08.2020 11:00:00 22,6 11,2 14 8 24 13 SSW 1018,1 28 0,0
01.08.2020 10:00:00 21,1 14,7 9 5 16 9 SSW 1018,3 32 0,0
01.08.2020 09:00:00 20,9 15,2 5 3 11 6 ESE 1018,3 31 0,0
01.08.2020 08:00:00 18,1 16,8 3 2 7 4 SE 1018,4 37 0,0
01.08.2020 07:00:00 13,9 13,3 2 1 5 3 E 1018,6 15 0,0
01.08.2020 06:00:00 10,8 10,3 0 0 4 2 N 1018,7 8 0,0
01.08.2020 05:00:00 10,1 9,5 0 0 5 3 N 1018,7 10 0,0
01.08.2020 04:00:00 9,9 9,2 4 2 6 3 E 1018,8 14 0,0
01.08.2020 03:00:00 11,0 10,4 0 0 5 3 N 1019,0 11 0,0
01.08.2020 02:00:00 10,7 9,9 4 2 5 3 NE 1019,1 - 0,0
01.08.2020 01:00:00 11,3 10,4 3 1 5 3 NNE 1019,3 12 0,0
01.08.2020 00:00:00 12,9 12,0 0 0 5 3 N 1019,2 - 0,0
31.07.2020 23:00:00 13,4 12,1 0 0 8 4 N 1019,1 12 0,0
31.07.2020 22:00:00 14,2 12,4 4 2 8 4 NNE 1019,2 27 0,0
31.07.2020 21:00:00 16,2 12,9 5 3 11 6 N 1018,9 40 0,0
31.07.2020 20:00:00 19,6 13,1 5 3 12 7 WNW 1018,7 50 0,0
31.07.2020 19:00:00 21,0 13,4 8 4 14 8 NNW 1018,7 29 0,0
31.07.2020 18:00:00 20,2 12,7 12 6 19 10 WNW 1018,8 42 0,0
31.07.2020 17:00:00 20,7 13,6 10 6 19 10 WNW 1018,6 28 0,0
31.07.2020 16:00:00 21,1 13,8 9 5 21 12 NW 1018,7 29 0,0
31.07.2020 15:00:00 19,2 14,5 11 6 22 12 WNW 1018,6 30 0,0
31.07.2020 14:00:00 16,7 13,2 14 8 26 14 WNW 1018,7 29 0,0
31.07.2020 13:00:00 16,5 12,7 16 8 31 17 WNW 1018,6 30 0,0
31.07.2020 12:00:00 16,5 12,5 16 8 32 17 WNW 1018,2 34 0,0
31.07.2020 11:00:00 16,2 12,3 19 11 39 21 NW 1017,9 33 0,0
31.07.2020 10:00:00 15,8 12,0 14 8 29 16 NW 1017,6 39 0,0
31.07.2020 09:00:00 15,2 12,0 14 8 31 17 WNW 1017,3 39 0,0
31.07.2020 08:00:00 15,0 11,8 16 9 29 15 WNW 1017,0 41 0,0
31.07.2020 07:00:00 14,6 11,7 15 8 27 14 WNW 1016,7 34 0,0
31.07.2020 06:00:00 14,1 11,6 9 5 21 11 WNW 1016,6 31 0,0
31.07.2020 05:00:00 13,6 11,1 10 5 22 12 W 1016,3 24 0,0
31.07.2020 04:00:00 13,6 10,8 11 6 28 15 W 1016,2 19 0,0
31.07.2020 03:00:00 13,7 10,3 9 5 26 14 W 1016,2 32 0,0
31.07.2020 02:00:00 13,9 9,9 12 6 34 19 WNW 1016,4 41 0,0
31.07.2020 01:00:00 14,2 9,6 22 12 40 21 WNW 1016,5 40 0,0
31.07.2020 00:00:00 14,6 9,4 16 9 34 19 WNW 1016,4 44 0,0
30.07.2020 23:00:00 14,5 9,3 11 6 28 15 W 1016,4 46 0,0
30.07.2020 22:00:00 15,1 9,5 11 6 27 15 W 1016,3 50 0,0
30.07.2020 21:00:00 16,0 9,4 16 8 32 17 W 1016,2 50 0,0
30.07.2020 20:00:00 16,4 9,1 14 8 34 18 W 1016,4 50 0,0
30.07.2020 19:00:00 17,1 9,0 18 10 35 19 W 1016,3 44 0,0
30.07.2020 18:00:00 16,7 9,9 20 11 34 19 WNW 1016,5 35 0,0
30.07.2020 17:00:00 16,5 9,3 20 11 36 19 W 1016,8 40 0,0
30.07.2020 16:00:00 16,5 9,9 22 12 41 22 W 1016,7 35 0,0
30.07.2020 15:00:00 15,8 9,9 18 10 35 19 W 1016,7 33 0,0
30.07.2020 14:00:00 15,2 10,0 18 10 40 22 W 1016,6 32 0,0
30.07.2020 13:00:00 14,7 9,9 18 10 36 19 W 1016,5 31 0,0
30.07.2020 12:00:00 14,3 9,9 16 8 34 18 W 1016,3 22 0,0
30.07.2020 11:00:00 14,0 9,9 18 10 37 20 W 1015,9 21 0,0
30.07.2020 10:00:00 13,7 10,3 16 9 34 18 W 1015,4 21 0,0
30.07.2020 09:00:00 13,9 10,3 16 9 34 19 W 1015,0 29 0,0
30.07.2020 08:00:00 14,1 10,5 18 10 32 17 W 1014,3 36 0,0
30.07.2020 07:00:00 13,6 11,3 15 8 29 16 WSW 1013,7 25 0,0
30.07.2020 06:00:00 13,6 10,2 17 9 35 19 W 1013,4 23 0,0
30.07.2020 05:00:00 13,6 10,0 17 9 35 19 WSW 1013,2 43 0,0
30.07.2020 04:00:00 13,4 10,2 18 10 36 19 WSW 1013,2 42 0,3
30.07.2020 03:00:00 13,0 10,2 18 10 40 22 WSW 1013,3 12 0,0
30.07.2020 02:00:00 13,9 9,1 16 9 32 17 W 1013,2 45 0,0
30.07.2020 01:00:00 13,6 9,6 17 9 33 18 WSW 1013,1 22 0,0
30.07.2020 00:00:00 13,8 9,8 14 8 28 15 WSW 1012,9 32 0,0
29.07.2020 23:00:00 13,2 10,5 12 7 41 22 W 1012,8 33 0,2
29.07.2020 22:00:00 14,6 9,4 25 13 47 25 WSW 1012,7 33 0,0
29.07.2020 21:00:00 14,9 9,5 23 12 47 26 WSW 1012,4 46 0,0
29.07.2020 20:00:00 15,5 10,3 25 13 46 25 WSW 1011,9 45 0,0
29.07.2020 19:00:00 16,3 10,8 24 13 46 25 WSW 1011,8 47 0,0
29.07.2020 18:00:00 16,7 10,3 24 13 47 26 WSW 1011,4 40 0,0
29.07.2020 17:00:00 17,0 10,0 24 13 44 24 WSW 1011,1 38 0,0
29.07.2020 16:00:00 16,9 9,1 22 12 47 25 WSW 1011,1 46 0,0
29.07.2020 15:00:00 18,0 8,6 25 13 46 25 WSW 1010,5 39 0,0
29.07.2020 14:00:00 18,2 7,6 21 11 41 22 WSW 1010,2 37 0,0
29.07.2020 13:00:00 17,9 5,5 33 18 48 26 WSW 1010,0 31 0,0
29.07.2020 12:00:00 16,9 8,1 27 15 45 25 WSW 1009,9 45 0,0
29.07.2020 11:00:00 17,8 10,0 21 12 40 22 SW 1009,6 35 0,0
29.07.2020 10:00:00 16,9 9,3 21 11 - - SW 1009,3 42 0,0
29.07.2020 09:00:00 15,8 9,9 18 10 37 20 SW 1009,0 36 0,0
29.07.2020 08:00:00 14,6 10,4 17 9 33 18 SW 1008,8 38 0,0
29.07.2020 07:00:00 14,4 10,4 16 9 33 18 SSW 1008,8 34 0,0
29.07.2020 06:00:00 14,0 10,4 18 10 36 20 SSW 1009,0 34 0,0
29.07.2020 05:00:00 14,0 10,6 20 11 32 17 SSW 1008,9 27 0,0
29.07.2020 04:00:00 13,8 10,8 14 8 28 15 SSW 1008,9 26 0,0
29.07.2020 03:00:00 14,1 10,3 13 7 27 15 SSW 1008,9 31 0,0
29.07.2020 02:00:00 13,9 9,7 13 7 27 14 SW 1008,9 37 0,0
29.07.2020 01:00:00 14,5 9,5 16 9 27 15 SW 1008,7 37 0,0
29.07.2020 00:00:00 14,5 8,9 14 7 29 15 SW 1008,6 45 0,0
28.07.2020 23:00:00 14,8 9,2 11 6 36 19 WSW 1008,3 48 0,0
28.07.2020 22:00:00 16,8 8,7 19 11 33 18 SW 1008,0 39 0,0
28.07.2020 21:00:00 17,1 9,5 14 7 31 17 WSW 1007,8 45 0,0
28.07.2020 20:00:00 18,7 8,4 17 9 33 18 WSW 1007,3 41 0,0
28.07.2020 19:00:00 18,8 9,6 20 11 38 20 SW 1007,1 39 0,0
28.07.2020 18:00:00 19,8 9,1 16 9 29 16 WSW 1006,8 45 0,0
28.07.2020 17:00:00 20,7 8,9 18 10 36 19 WSW 1006,7 49 0,0
28.07.2020 16:00:00 21,0 7,9 22 12 39 21 WSW 1006,6 36 0,0
28.07.2020 15:00:00 21,5 10,6 22 12 35 19 W 1005,9 31 0,0
28.07.2020 14:00:00 21,4 11,1 22 12 39 21 W 1005,1 30 0,0

tt = Température de l'air
td = dewpoint
ff = Vitesse du vent
fx = gusts
dd = Direction du vent
ppp = reduced air pressure
vv = visibility
rr = Quantités de précipitations

stations d'obs. à proximité